Buckeye, AZ

6:05 AM MST on June 25, 2017 (GMT -0700)
Buckeye Municipal

Weather History for KBXK - April, 2014

Change the Weather History Date:

Saturday, April 19, 2014

  Actual Average (KGYR) Record (KGYR)
Temperature  
Mean Temperature 70 °F -  
Max Temperature 84 °F 83 °F 96 °F (1997)
Min Temperature 55 °F 54 °F 42 °F (2007)
Cooling Degree Days 4    
Growing Degree Days 20 (Base 50)    
Moisture  
Dew Point 40 °F    
Average Humidity 36    
Maximum Humidity 63    
Minimum Humidity 17    
Precipitation  
Precipitation 0.00 in - - ()
Sea Level Pressure  
Sea Level Pressure 29.91 in    
Wind  
Wind Speed 6 mph (NW)    
Max Wind Speed 14 mph    
Max Gust Speed 20 mph    
Visibility 10 miles    
Events      
Averages and records for this station are not official NWS values.
T = Trace of Precipitation, MM = Missing Value Source: NWS Daily Summary

Daily Weather History Graph

Daily Weather History Graph

Search for Another Location

Airport or City:

Trip Planner

Search our weather history database for the weather conditions in past years. The results will help you decide how hot, cold, wet, or windy it might be!

Date:

Astronomy

Apr. 19, 2014 Rise Set
Actual Time 5:55 AM MST 7:04 PM MST
Civil Twilight 5:29 AM MST 7:30 PM MST
Nautical Twilight 4:59 AM MST 8:01 PM MST
Astronomical Twilight 4:27 AM MST 8:32 PM MST
Moon 11:42 PM MST (4/19) 9:24 AM MST (4/19)
Length of Visible Light 14h 00m
Length of Day
13h 09m
Waning Gibbous, 77% of the Moon is Illuminated
Apr 19
Waning Gibbous
Apr 22
Last Quarter
Apr 28
New
May 6
First Quarter
May 14
Full

Hourly Weather History & Observations

Time (MST) Temp. Dew Point Humidity Pressure Visibility Wind Dir Wind Speed Gust Speed Precip Events Conditions
12:15 AM 62.6 °F 46.4 °F 55% 29.89 in 10.0 mi WNW 5.8 mph - N/A   Clear
12:35 AM 62.6 °F 46.4 °F 55% 29.89 in 10.0 mi NW 5.8 mph - N/A   Clear
12:55 AM 62.6 °F 44.6 °F 52% 29.88 in 10.0 mi North 9.2 mph - N/A   Clear
1:15 AM 62.6 °F 44.6 °F 52% 29.88 in 10.0 mi North 6.9 mph - N/A   Clear
1:35 AM 64.4 °F 44.6 °F 49% 29.88 in 10.0 mi North 9.2 mph - N/A   Clear
1:55 AM 64.4 °F 46.4 °F 52% 29.88 in 10.0 mi North 8.1 mph - N/A   Clear
2:15 AM 62.6 °F 44.6 °F 52% 29.87 in 10.0 mi NNW 6.9 mph - N/A   Mostly Cloudy
2:35 AM 60.8 °F 44.6 °F 55% 29.87 in 10.0 mi NW 6.9 mph - N/A   Overcast
2:55 AM 60.8 °F 44.6 °F 55% 29.87 in 10.0 mi NNW 9.2 mph - N/A   Overcast
3:15 AM 62.6 °F 44.6 °F 52% 29.87 in 10.0 mi NW 9.2 mph - N/A   Partly Cloudy
3:35 AM 60.8 °F 44.6 °F 55% 29.87 in 10.0 mi NNW 10.4 mph - N/A   Clear
3:55 AM 59.0 °F 44.6 °F 59% 29.88 in 10.0 mi NNE 4.6 mph - N/A   Clear
4:15 AM 59.0 °F 42.8 °F 55% 29.87 in 10.0 mi North 6.9 mph - N/A   Scattered Clouds
4:35 AM 57.2 °F 42.8 °F 59% 29.87 in 10.0 mi North 5.8 mph - N/A   Mostly Cloudy
4:55 AM 57.2 °F 41.0 °F 55% 29.88 in 10.0 mi Calm Calm - N/A   Clear
5:15 AM 55.4 °F 41.0 °F 58% 29.88 in 10.0 mi North 4.6 mph - N/A   Clear
5:35 AM 55.4 °F 41.0 °F 58% 29.89 in 10.0 mi North 5.8 mph - N/A   Clear
5:55 AM 55.4 °F 39.2 °F 54% 29.91 in 10.0 mi ENE 3.5 mph - N/A   Clear
6:15 AM 55.4 °F 41.0 °F 58% 29.91 in 10.0 mi East 4.6 mph - N/A   Clear
6:35 AM 57.2 °F 44.6 °F 63% 29.92 in 10.0 mi NE 4.6 mph - N/A   Clear
6:55 AM 59.0 °F 44.6 °F 59% 29.93 in 10.0 mi East 4.6 mph - N/A   Clear
7:15 AM 62.6 °F 46.4 °F 55% 29.94 in 10.0 mi Calm Calm - N/A   Scattered Clouds
7:35 AM 62.6 °F 46.4 °F 55% 29.94 in 10.0 mi NNW 3.5 mph - N/A   Partly Cloudy
7:55 AM 66.2 °F 44.6 °F 46% 29.94 in 10.0 mi Calm Calm - N/A   Clear
8:15 AM 66.2 °F 44.6 °F 46% 29.94 in 10.0 mi Calm Calm - N/A   Scattered Clouds
8:35 AM 68.0 °F 44.6 °F 43% 29.94 in 10.0 mi Calm Calm - N/A   Partly Cloudy
8:55 AM 68.0 °F 44.6 °F 43% 29.95 in 10.0 mi Calm Calm - N/A   Partly Cloudy
9:15 AM 68.0 °F 46.4 °F 46% 29.95 in 10.0 mi SE 5.8 mph - N/A   Clear
9:35 AM 68.0 °F 46.4 °F 46% 29.96 in 10.0 mi SE 6.9 mph - N/A   Clear
9:55 AM 71.6 °F 46.4 °F 41% 29.96 in 10.0 mi ESE 5.8 mph - N/A   Clear
10:15 AM 73.4 °F 46.4 °F 38% 29.96 in 10.0 mi East 5.8 mph - N/A   Clear
10:35 AM 75.2 °F 44.6 °F 34% 29.96 in 10.0 mi SE 5.8 mph - N/A   Clear
10:55 AM 77.0 °F 46.4 °F 34% 29.96 in 9.0 mi SSE 6.9 mph - N/A   Clear
11:15 AM 78.8 °F 44.6 °F 30% 29.96 in 10.0 mi ESE 5.8 mph - N/A   Clear
11:35 AM 78.8 °F 41.0 °F 26% 29.95 in 10.0 mi SE 5.8 mph - N/A   Clear
11:55 AM 80.6 °F 39.2 °F 23% 29.95 in 10.0 mi South 8.1 mph - N/A   Clear
12:15 PM 80.6 °F 39.2 °F 23% 29.94 in 10.0 mi SSE 4.6 mph - N/A   Clear
12:35 PM 82.4 °F 39.2 °F 21% 29.93 in 10.0 mi SE 4.6 mph - N/A   Clear
12:55 PM 82.4 °F 39.2 °F 21% 29.93 in 10.0 mi South 5.8 mph - N/A   Clear
1:15 PM 82.4 °F 37.4 °F 20% 29.93 in 10.0 mi SSW 3.5 mph - N/A   Clear
1:35 PM 84.2 °F 35.6 °F 18% 29.92 in 10.0 mi SW 3.5 mph - N/A   Clear
1:55 PM 82.4 °F 37.4 °F 20% 29.91 in 10.0 mi South 8.1 mph - N/A   Clear
2:15 PM 84.2 °F 37.4 °F 19% 29.90 in 10.0 mi South 10.4 mph - N/A   Clear
2:35 PM 84.2 °F 37.4 °F 19% 29.90 in 10.0 mi SSE 8.1 mph - N/A   Clear
2:55 PM 84.2 °F 35.6 °F 18% 29.89 in 10.0 mi SSE 3.5 mph - N/A   Clear
3:15 PM 84.2 °F 35.6 °F 18% 29.88 in 10.0 mi West 3.5 mph - N/A   Clear
3:35 PM 84.2 °F 35.6 °F 18% 29.88 in 10.0 mi SE 6.9 mph - N/A   Partly Cloudy
3:55 PM 84.2 °F 35.6 °F 18% 29.87 in 10.0 mi SW 3.5 mph - N/A   Partly Cloudy
4:15 PM 84.2 °F 35.6 °F 18% 29.87 in 10.0 mi West 4.6 mph - N/A   Partly Cloudy
4:35 PM 82.4 °F 37.4 °F 20% 29.88 in 10.0 mi West 5.8 mph - N/A   Partly Cloudy
4:55 PM 82.4 °F 33.8 °F 17% 29.88 in 10.0 mi West 3.5 mph - N/A   Clear
5:15 PM 84.2 °F 37.4 °F 19% 29.87 in 10.0 mi West 5.8 mph - N/A   Clear
5:35 PM 84.2 °F 39.2 °F 20% 29.88 in 10.0 mi West 13.8 mph 19.6 mph N/A   Clear
5:55 PM 84.2 °F 39.2 °F 20% 29.88 in 10.0 mi West 12.7 mph 16.1 mph N/A   Clear
6:15 PM 82.4 °F 39.2 °F 21% 29.88 in 10.0 mi West 9.2 mph - N/A   Clear
6:35 PM 82.4 °F 37.4 °F 20% 29.89 in 10.0 mi West 8.1 mph - N/A   Clear
6:55 PM 80.6 °F 37.4 °F 21% 29.90 in 10.0 mi West 6.9 mph - N/A   Clear
7:15 PM 77.0 °F 37.4 °F 24% 29.90 in 10.0 mi WNW 8.1 mph - N/A   Clear
7:35 PM 77.0 °F 37.4 °F 24% 29.91 in 10.0 mi WNW 6.9 mph - N/A   Clear
7:55 PM 77.0 °F 35.6 °F 22% 29.92 in 10.0 mi WNW 6.9 mph - N/A   Clear
8:15 PM 75.2 °F 35.6 °F 24% 29.92 in 10.0 mi WNW 6.9 mph - N/A   Clear
8:35 PM 73.4 °F 35.6 °F 25% 29.93 in 10.0 mi WNW 6.9 mph - N/A   Clear
8:55 PM 73.4 °F 33.8 °F 23% 29.94 in 10.0 mi WNW 6.9 mph - N/A   Clear
9:15 PM 71.6 °F 33.8 °F 25% 29.94 in 10.0 mi WNW 8.1 mph - N/A   Clear
9:35 PM 71.6 °F 35.6 °F 27% 29.94 in 10.0 mi NNW 5.8 mph - N/A   Clear
9:55 PM 69.8 °F 35.6 °F 28% 29.95 in 9.0 mi NNW 5.8 mph - N/A   Clear
10:15 PM 68.0 °F 33.8 °F 28% 29.95 in 10.0 mi North 5.8 mph - N/A   Clear
10:35 PM 68.0 °F 33.8 °F 28% 29.95 in 10.0 mi NNW 6.9 mph - N/A   Clear
10:55 PM 68.0 °F 33.8 °F 28% 29.96 in 10.0 mi NNW 6.9 mph - N/A   Clear
11:15 PM 66.2 °F 35.6 °F 32% 29.96 in 10.0 mi North 8.1 mph - N/A   Clear
11:35 PM 66.2 °F 35.6 °F 32% 29.96 in 10.0 mi North 8.1 mph - N/A   Clear
11:55 PM 66.2 °F 37.4 °F 35% 29.97 in 10.0 mi South 6.9 mph - N/A   Clear